Lid_Strength_Index
0 -0 -1 -1 -1 -1 -1 -1 -1 -1 -1 -2 -2 -2 -1 -1 -1 -1 -1 0 2 3 3 1 1 1 4
0 1 1 0 -0 -0 -0 1 1 0 -0 -0 -0 -2 -2 -1 -1 -1 -1 0 2 3 4 3 2 3 6
-0 1 2 1 1 1 1 2 3 2 2 2 1 -0 -2 -2 -1 -1 -0 0 2 4 5 4 6 8 8
0 1 1 -0 -0 -0 -0 1 1 1 1 3 3 1 -0 -1 -2 -1 -1 0 5 11 11 8 11 10 9
1 1 1 1 0 0 0 0 1 2 3 3 3 3 3 3 2 1 2 6 10 12 11 11 12 12 10
2 1 1 1 1 0 1 1 1 2 3 3 4 4 4 5 5 4 5 6 9 10 11 11 12 12 11
3 3 1 0 1 1 1 2 3 3 2 3 3 3 4 5 6 6 6 7 9 11 11 12 12 12 12
1 3 1 0 0 1 1 1 3 4 4 2 3 4 4 5 6 7 7 7 10 11 11 11 12 12 12
2 3 3 1 1 2 1 2 3 3 3 2 4 5 4 5 6 7 8 9 10 11 12 12 12 12 12
3 3 3 3 3 3 3 2 3 3 2 3 4 4 4 6 6 7 8 11 11 12 13 13 13 12 12
4 4 4 4 4 3 2 2 2 2 2 3 4 4 5 5 6 7 10 10 12 12 12 13 13 13 12
8 6 6 8 7 5 5 3 2 2 3 3 4 5 5 6 8 9 9 11 12 12 12 12 14 13 13
10 10 9 10 10 9 8 7 6 4 3 3 4 4 5 6 6 8 10 11 12 12 13 14 14 13 14
11 11 10 11 11 11 10 10 9 8 7 6 6 7 7 7 8 9 10 11 11 12 13 15 15 14 14
12 11 11 11 12 12 13 12 12 11 11 10 9 7 8 8 8 9 10 11 11 12 13 12 15 17 17
12 12 13 14 14 14 13 13 13 13 14 13 12 11 10 9 9 10 10 11 11 11 12 12 13 14 15